カタログに戻る

COSMOS 1275 DEB

運用中PO
NORAD 14357·DEBRIS·🇷🇺 Russia

打ち上げ Jun 4, 1981 から Plesetsk Cosmodrome

Loading…

次のパス (今後24時間)

TLE

最新Source: Space-Track

元期: Sep 14, 2026, 00:35 UTC

1 14357U 81053HQ  26257.02476574  .00001209  00000-0  57813-3 0  9993
2 14357  82.8417 279.2619 0041942 127.2866 260.9801 14.17951081216372

AllMySatでCOSMOS 1275 DEBをリアルタイム追跡

Download on the App Store